"Pseudo-MPEC" for P212mbo

Created 2020 Jul 15 8:07:17 UT using Find_Orb

Click here for an explanation of pseudo-MPECs

 
 Astrometry: 
     P212mbo  C2020 05 30fSro^VLr*By8MNyBUV`dpdhjSkTNfO5R\aH@N8q8;x@:@vJZ:@D\F51
     P212mbo  C2020 05 301QNe%::nmPVopNCcPnUklu_fK0FfPDH;PPUkt$8JZ-A.*^8y9*E4F51
     P212mbo  C2020 05 30Cf`S2^1Nya%pJTtbY.ITS8/,Q9,e\r%j^+NI4M09-[=/%u(O45gCF51
     P212mbo  C2020 05 30B6(]MTc=8nEb(LLuZa8vqqqiy#5g!1_7mBG+5_TZ!6-(2Ai$q:PhF51
     P212mbo  C2020 05 30))B-r/b]nSPjrwP-7*hl@Ot,p1gX;/bDQI=:1bd+R6((Dsfff-;:F51
     P212mbo  C2020 05 309eX$,7AstrometrysoS5:giV+t.BWk@PW,p!e2fCjL4dAA\ACq[dF51
     P212mbo  C2020 05 30`kp5yllD2BVmN?X`_U+1jo,1+M/VbspSC+,5wQGtaeg5^yvwT[.DF51
     P212mbo  C2020 05 30*n05Ask]la6jmw%D('riF_$+^T\m5E7?9!.[tyrA;c1b`j,hq%W5F51
     P212mbo  C2020 06 17#Wj_JY*;SDqaYk;QfV:wTB$B9]S1Vi433t7FX,y#;5IVg5f[g*6/F51
     P212mbo  C2020 06 17bXf4V/CvPZv/fveDk!mGB(g#IK9X3L53l#C!%fQVMeA#Pen+XoM:F51
     P212mbo  C2020 06 21\Qd-DvuJ1b4,qnLHJMvinysYn%k=R+T]oaredacted;(F6RWyIF_F51
     P212mbo  C2020 06 21@:1i8?-,?f+0^^p8A?S#ej0wCYw(ykmB/,;lZBf(P^@FP;f*?+tOF51
     P212mbo  C2020 06 22(qbYy;JF8Y,SuSgr?ho@pW5\;TAi]$`E]9;._SgF,=ytirigvc]SF51
     P212mbo  C2020 06 22RsH-o7DswDV6click_Pl`vx#OLlGh54eRLr*yAkn26A04Rsp*?VZF51
     P212mbo  C2020 06 22=3/DYV2nEQK$+$yPM1@nuTFv'qZF';;Jbt[NCC+^(/]3\nS+D.Q@F51
     P212mbo  C2020 06 22iT6*oTE@ps!D[$:fbBuyUXHc=lKnf:K@PU6^T0TM1SjlW*2t-M6?F51
     P212mbo  C2020 06 23uS\g$+SVNIed-here?tl_o6+t=TUJ(ED#xEeR@Ai,jQ%mrWbbv]%F52
     P212mbo  C2020 06 23Q8*Y7N\5T[7@41;:!_,'WSS5opwkS#BE-U\5lKCMb=asYN5;4prgF52
     P212mbo  C2020 06 23$-\t+('b$IZ^g'SOE;Xq+G2?=*aAlwow%v9^bFD_'QhFk^=P+)I#F52
     P212mbo  C2020 06 2340DZbnWgDpKG2C?2AY9sGt?lX7v@FA.0?hr3y:XI?Y[cRG^e;W35F52
     P212mbo  C2020 06 28Q%GBeb`Kfm_mmS%pr8R5ESt0n+C]6#+XYJu[1FGk9`^`9WfVc!UuF52
     P212mbo  C2020 06 28fe[cHqf-PEXKZCK(4BL%6j\!y#V;SvZ4`]_j5::E?vY^?`=U*S1_F52
     P212mbo  C2020 06 28RhpGAl(/,eog/^G2ya1r^EV#+M25wO2eEZa7px[?ej$2VWsforhOF52
     P212mbo  C2020 06 281g`hrgTanQ6=[:XMVNK7Hj\Ll]O4f;!)Mexplanationn^5i%B`;F52
     P212mbo  C2020 07 017hmGm_o]uu9A2BVx]W%A+M%tiHSe/nM6Jt)cif^%YP5O_G.,5_$.F52
     P212mbo  C2020 07 01YC=(FjJ?H3bhK'H*WJt`cAnjM))-a7@+.H+SAUrCBZ1m;YQs]K3GF52
     P212mbo  C2020 07 01l\ks?tZ'f!ft#q'xSAHhS;)flVJjKdL8kjrLVM8++/2)5@K].XRkF52
     P212mbo  C2020 07 01DyHHqlM[iMcZF6jsNuX8bbM\3ejEq[Cp]lgO?#GcP1wvGgJu=(3YF52
     P212mbo  C2020 07 13D;;WZ_VQtH2F5a?l/(CtYsA!Cpr*QJyF\Y+l0Yl2k8SXn:7jN11OF52
     P212mbo  C2020 07 13.'Ghexmdx)w)ubbht.ZPalEW-6G[G2d091RYcEwaNuD$]`l1nb/sF52
     P212mbo  C2020 07 13-@ZCgoEyY/mja-a#niRlmi,9!!@=dm$+M!rBFL!/sEqSR2V!cloRF52

Station data:
(F51) Pan-STARRS 1, Haleakala  (N20.707235 W156.255910)  US/Hawaii.
   Observers N. Primak, A. Schultz, S. Watters, J. Thiel, T. Goggia. Measurer
   PS1 Science Consortium. 1.8-m Ritchey-Chrétien + CCD.
(F52) Pan-STARRS 2, Haleakala  (N20.707384 W156.255910)  US/Hawaii. 1.8-m
   Ritchey-Chrétien + CCD.

Orbital elements:  P212mbo
   Perihelion 2019 Sep 26.681981 +/- 0.0368 TT = 16:22:03 (JD 2458753.181981)
Epoch 2020 Jul 13.0 TT = JDT 2459043.5   Earth MOID: 0.8270   AutoNEOCP
M  80.22777725 +/- 0.016            (J2000 ecliptic)
n   0.27634446 +/- 2.49e-5          Peri.  275.24074 +/- 0.010
a   2.33436557 +/- 0.00014          Node   273.69549 +/- 0.0014
e   0.2835447 +/- 4.87e-5           Incl.   22.41096 +/- 0.0013
P   3.57                   H 17.8   G  0.15   U  5.6  
q 1.67246842 +/- 4.8e-5    Q 2.99626272 +/- 0.000287
From 31 observations 2020 May 30-July 13; mean residual 0".19
Residuals in arcseconds: 
200530 F51  .05-  .07-    200621 F51  .07-  .06+    200628 F52  .00   .13+    
200530 F51  .03+  .21-    200622 F51  .03+  .02+    200628 F52  .06+  .25+    
200530 F51  .09+  .19+    200622 F51  .06+  .02+    200701 F52  .38+  .13-    
200530 F51  .11-  .04-    200622 F51  .01-  .02+    200701 F52  .06-  .09-    
200530 F51  .04-  .01+    200622 F51  .16-  .24+    200701 F52  .03-  .09+    
200530 F51  .01+  .08+    200623 F52  .71-  .23-    200701 F52  .01+  .09-    
200530 F51  .11+  .26+    200623 F52  .12-  .00     200713 F52  .03+  .16-    
200530 F51  .02-  .10-    200623 F52  .38+  .07-    200713 F52  .01+  .08+    
200617 F51  .25-  .24+    200623 F52  .07+  .11+    200713 F52  .12-  .03-    
200617 F51  .41+  .64-    200628 F52  .06-  .12+    
200621 F51  .05-  .01-    200628 F52  .09+  .19+    

Ephemerides (geocentric):
Date (UTC) HH   RA              Dec         delta   r     elong  mag " sig PA
---- -- -- --  -------------   -----------  ------ ------ -----  --- ---- ---
2020 07 15 08  20 14 17.993   -01 45 26.64  1.4402 2.4150 158.5 21.1 .167  40
2020 07 15 09  20 14 14.922   -01 45 13.23  1.4403 2.4151 158.6 21.1 .168  40
2020 07 15 10  20 14 11.851   -01 44 59.84  1.4403 2.4152 158.6 21.1 .168  40
2020 07 15 11  20 14 08.779   -01 44 46.47  1.4403 2.4154 158.6 21.1 .169  40
2020 07 15 12  20 14 05.707   -01 44 33.13  1.4404 2.4155 158.6 21.1 .170  40
2020 07 15 13  20 14 02.634   -01 44 19.81  1.4404 2.4156 158.6 21.1 .170  40
2020 07 15 14  20 13 59.561   -01 44 06.51  1.4405 2.4157 158.7 21.1 .171  40
2020 07 15 15  20 13 56.487   -01 43 53.24  1.4405 2.4159 158.7 21.1 .172  40
2020 07 15 16  20 13 53.413   -01 43 39.99  1.4405 2.4160 158.7 21.1 .172  40
2020 07 15 17  20 13 50.339   -01 43 26.76  1.4406 2.4161 158.7 21.1 .173  40
2020 07 15 18  20 13 47.264   -01 43 13.55  1.4406 2.4163 158.8 21.1 .174  40
2020 07 15 19  20 13 44.189   -01 43 00.37  1.4407 2.4164 158.8 21.1 .174  40
2020 07 15 20  20 13 41.113   -01 42 47.21  1.4407 2.4165 158.8 21.1 .175  40
2020 07 15 21  20 13 38.037   -01 42 34.07  1.4407 2.4166 158.8 21.1 .175  40
2020 07 15 22  20 13 34.960   -01 42 20.95  1.4408 2.4168 158.9 21.1 .176  40
2020 07 15 23  20 13 31.884   -01 42 07.86  1.4408 2.4169 158.9 21.1 .177  40
2020 07 16 00  20 13 28.806   -01 41 54.79  1.4409 2.4170 158.9 21.1 .177  40
2020 07 16 01  20 13 25.729   -01 41 41.74  1.4409 2.4171 158.9 21.1 .178  40
2020 07 16 02  20 13 22.651   -01 41 28.72  1.4410 2.4173 158.9 21.1 .179  40
2020 07 16 03  20 13 19.572   -01 41 15.72  1.4410 2.4174 159.0 21.1 .179  40
2020 07 16 04  20 13 16.494   -01 41 02.74  1.4411 2.4175 159.0 21.1 .180  40
2020 07 16 05  20 13 13.414   -01 40 49.79  1.4411 2.4177 159.0 21.1 .181  40
2020 07 16 06  20 13 10.335   -01 40 36.85  1.4412 2.4178 159.0 21.1 .181  40
2020 07 16 07  20 13 07.255   -01 40 23.94  1.4412 2.4179 159.1 21.1 .182  40
2020 07 16 08  20 13 04.175   -01 40 11.06  1.4413 2.4180 159.1 21.1 .183  40
2020 07 16 09  20 13 01.095   -01 39 58.19  1.4413 2.4182 159.1 21.1 .183  40
2020 07 16 10  20 12 58.014   -01 39 45.35  1.4414 2.4183 159.1 21.1 .184  40
2020 07 16 11  20 12 54.933   -01 39 32.53  1.4414 2.4184 159.1 21.1 .185  40
2020 07 16 12  20 12 51.852   -01 39 19.74  1.4415 2.4185 159.2 21.1 .185  40
2020 07 16 13  20 12 48.770   -01 39 06.96  1.4415 2.4187 159.2 21.1 .186  40
2020 07 16 14  20 12 45.688   -01 38 54.21  1.4416 2.4188 159.2 21.1 .187  40
2020 07 16 15  20 12 42.606   -01 38 41.49  1.4416 2.4189 159.2 21.1 .187  40
2020 07 16 16  20 12 39.523   -01 38 28.78  1.4417 2.4191 159.2 21.1 .188  40
2020 07 16 17  20 12 36.440   -01 38 16.10  1.4417 2.4192 159.3 21.1 .189  40
2020 07 16 18  20 12 33.357   -01 38 03.44  1.4418 2.4193 159.3 21.1 .189  40
2020 07 16 19  20 12 30.273   -01 37 50.81  1.4418 2.4194 159.3 21.1 .190  40
2020 07 16 20  20 12 27.190   -01 37 38.19  1.4419 2.4196 159.3 21.1 .190  39
2020 07 16 21  20 12 24.106   -01 37 25.61  1.4419 2.4197 159.3 21.1 .191  39
2020 07 16 22  20 12 21.022   -01 37 13.04  1.4420 2.4198 159.4 21.1 .192  39
2020 07 16 23  20 12 17.937   -01 37 00.49  1.4420 2.4199 159.4 21.1 .192  39
2020 07 17 00  20 12 14.853   -01 36 47.97  1.4421 2.4201 159.4 21.1 .193  39
2020 07 17 01  20 12 11.768   -01 36 35.48  1.4421 2.4202 159.4 21.1 .194  39
2020 07 17 02  20 12 08.682   -01 36 23.00  1.4422 2.4203 159.4 21.1 .194  39
2020 07 17 03  20 12 05.597   -01 36 10.55  1.4423 2.4205 159.5 21.1 .195  39
2020 07 17 04  20 12 02.511   -01 35 58.12  1.4423 2.4206 159.5 21.1 .196  39
2020 07 17 05  20 11 59.426   -01 35 45.71  1.4424 2.4207 159.5 21.1 .196  39
2020 07 17 06  20 11 56.340   -01 35 33.33  1.4424 2.4208 159.5 21.1 .197  39
2020 07 17 07  20 11 53.253   -01 35 20.97  1.4425 2.4210 159.5 21.1 .198  39